Location: Newcastle Observatory
(43.9158°N, 78.5831°W)
Time: 22:24:39
(UTC-04:00)

Amateur Radio Satellites - All Passes

Search period start: 29 May 2015 21:54
Search period end: 30 May 2015 21:54
Location: Newcastle Observatory, 43.9158°N, 78.5831°W

Satellite Date Start Highest point End Downlink Frequencies (MHz)
Time Altitude Azimuth
ZACube-1 29 May 21:55:50 22:00:14 47° 72° (ENE) 22:04:37 437.345
AIST 1 29 May 21:56:44 22:00:16 24° 289° (WNW) 22:03:47
HO-68 29 May 21:58:36 22:05:16 39° 263° (W) 22:11:52 435.675
SEEDS 29 May 22:00:33 22:04:17 30° 265° (W) 22:07:59 437.485
Oscar 11 29 May 22:01:19 22:05:39 90° 255° (WSW) 22:10:00 145.826/435.025
DX 1 29 May 22:05:15 22:09:01 30° 68° (ENE) 22:12:52 434.975-435.025
CUBEBUG 2 29 May 22:07:20 22:12:07 87° 257° (WSW) 22:16:54 437.445
COMPASS 1 29 May 22:08:49 22:12:31 29° 265° (W) 22:16:11 437.405
ISS 29 May 22:10:08 22:12:01 15° 134° (SE) 22:14:00 145.825
DANDE 29 May 22:14:41 22:16:42 11° 45° (NE) 22:19:03 436.750
AAUSAT CUBESAT 2 29 May 22:18:25 22:22:00 27° 265° (W) 22:25:32 437.432
M-CUBED/EXP-1 PRIME 29 May 22:19:55 22:21:13 12° 301° (WNW) 22:22:25 437.505
GONETS M04 29 May 22:20:35 22:23:38 12° 49° (NE) 22:27:16
DOVE 4 29 May 22:22:29 22:26:26 21° 271° (W) 22:30:18 437.250
CUBEBUG 1 29 May 22:22:53 22:24:40 13° 62° (ENE) 22:26:41 437.445
DELFI C3 29 May 22:24:11 22:28:11 67° 259° (W) 22:32:12 145.870
CUSAT 1 29 May 22:24:17 22:27:47 15° 51° (NE) 22:31:14 437.405
AUBIESAT-1 29 May 22:25:03 22:26:24 12° 300° (WNW) 22:27:37 437.475
VELOX 1 29 May 22:31:25 22:35:13 28° 68° (ENE) 22:39:04 145.980
ESTCUBE 1 29 May 22:46:43 22:50:20 25° 67° (ENE) 22:54:03 437.505/2401.250
UWE-3 29 May 22:48:34 22:53:01 41° 262° (W) 22:57:26 435.000/436.395/437.385
FUNcube-1 29 May 22:50:06 22:54:34 50° 261° (W) 22:58:59 145.935
Cosmos 2504 29 May 22:53:01 22:59:12 31° 274° (W) 23:05:15 435.465 / 435.565
HUMSAT D 29 May 23:00:28 23:04:47 78° 258° (WSW) 23:09:06 437.325/437.525
AISAT 29 May 23:03:30 23:07:54 62° 73° (ENE) 23:12:20 437.250
ANTELSAT 29 May 23:05:03 23:08:26 22° 93° (E) 23:11:51 437.575/2403.000
50 SAT 29 May 23:13:13 23:17:12 84° 79° (ENE) 23:21:13 437.505
CINEMA 3 29 May 23:17:11 23:19:07 12° 275° (W) 23:20:45 145.822/145.860
QB50P1 29 May 23:22:11 23:24:40 15° 90° (E) 23:27:19 145.935-145.965
POLYITAN 1 29 May 23:25:45 23:28:31 17° 90° (E) 23:31:24 437.675
UKube-1 29 May 23:27:35 23:31:40 40° 262° (W) 23:35:46 .
ZACube-1 29 May 23:33:32 23:36:51 19° 269° (W) 23:40:01 437.345
TIGRISAT 29 May 23:35:50 23:40:02 45° 98° (E) 23:44:09 435.000
DX 1 29 May 23:41:30 23:45:16 27° 265° (W) 23:48:59 434.975-435.025
ISS 29 May 23:44:51 23:48:06 75° 329° (NNW) 23:51:22 145.825
O/OREOS (USA 219) 29 May 23:46:18 23:47:39 11° 45° (NE) 23:49:12 437.305
NANOSAT C BR1 29 May 23:51:22 23:55:10 31° 96° (E) 23:58:58 145.865
DANDE 29 May 23:54:53 00:02:27 52° 71° (ENE) 00:08:23 436.750
CUBEBUG 1 29 May 23:56:08 00:00:30 74° 258° (WSW) 00:04:55 437.445
UNISAT 6 29 May 23:57:35 00:01:59 82° 102° (ESE) 00:06:16 437.425
QB50P2 30 May 00:01:37 00:05:41 41° 98° (E) 00:09:43 145.880/145.840
CUSAT 1 30 May 00:05:10 00:12:18 76° 77° (ENE) 00:17:41 437.405
VELOX 1 30 May 00:07:48 00:11:43 29° 265° (W) 00:15:37 145.980
DUCHIFAT 1 30 May 00:12:15 00:16:27 51° 100° (E) 00:20:35 145.980
POPSAT HIP 1 30 May 00:12:58 00:17:11 54° 100° (E) 00:21:22 437.405
GONETS M04 30 May 00:14:24 00:23:03 58° 76° (ENE) 00:31:38
BUGSAT 1 30 May 00:20:58 00:25:04 44° 98° (E) 00:29:09 437.445
SPROUT 30 May 00:22:42 00:26:57 60° 74° (ENE) 00:31:16 437.525
ESTCUBE 1 30 May 00:22:58 00:27:05 34° 264° (W) 00:31:11 437.505/2401.250
PCSat 30 May 00:27:41 00:32:44 42° 113° (ESE) 00:37:52 145.827
TISAT 1 30 May 00:33:32 00:37:42 58° 74° (ENE) 00:41:56 437.305
ANTELSAT 30 May 00:41:21 00:45:21 35° 290° (WNW) 00:49:14 437.575/2403.000
AISAT 30 May 00:42:38 00:44:58 14° 272° (W) 00:47:07 437.250
QB50P1 30 May 00:56:44 01:00:54 50° 288° (WNW) 01:05:00 145.935-145.965
POLYITAN 1 30 May 01:00:36 01:04:43 45° 288° (WNW) 01:08:45 437.675
VERMONT LUNAR 30 May 01:02:38 01:04:57 18° 157° (SSE) 01:07:18 437.305
BEESAT 2 30 May 01:11:21 01:13:54 16° 37° (NE) 01:16:31 435.950
TIGRISAT 30 May 01:13:25 01:16:28 18° 296° (WNW) 01:19:22 435.000
Cosmos 2499 30 May 01:19:33 01:25:15 26° 66° (ENE) 01:31:11 435.465 / 435.565
ITUPSAT 1 30 May 01:20:43 01:24:54 32° 68° (ENE) 01:29:10 437.325
ISS 30 May 01:22:11 01:24:54 23° 349° (N) 01:27:37 145.825
O/OREOS (USA 219) 30 May 01:23:25 01:27:56 82° 68° (ENE) 01:32:24 437.305
BEESAT 30 May 01:26:07 01:30:28 37° 69° (ENE) 01:34:51 436.000
NANOSAT C BR1 30 May 01:27:21 01:30:54 25° 293° (WNW) 01:34:21 145.865
SWISSCUBE 30 May 01:34:54 01:39:27 48° 71° (ENE) 01:44:03 437.505
UNISAT 6 30 May 01:36:45 01:38:09 11° 300° (WNW) 01:39:21 437.425
QB50P2 30 May 01:38:10 01:41:19 20° 295° (WNW) 01:44:20 145.880/145.840
DANDE 30 May 01:38:48 01:45:12 30° 276° (W) 01:50:20 436.750
DUCHIFAT 1 30 May 01:49:09 01:51:53 16° 296° (WNW) 01:54:28 145.980
CUSAT 1 30 May 01:49:31 01:53:50 18° 281° (W) 01:57:21 437.405
POPSAT HIP 1 30 May 01:50:00 01:52:40 16° 296° (WNW) 01:55:10 437.405
BEESAT 3 30 May 01:55:13 01:59:05 39° 49° (NE) 02:02:54 437.485
BUGSAT 1 30 May 01:57:13 02:00:15 19° 295° (WNW) 02:03:08 437.445
SPROUT 30 May 02:01:19 02:03:31 13° 272° (W) 02:05:31 437.525
PHONESAT 2.4 30 May 02:10:20 02:12:49 18° 155° (SSE) 02:15:20 2401.200-2431.200
PCSat 30 May 02:11:24 02:16:17 33° 313° (NW) 02:21:10 145.827
TISAT 1 30 May 02:11:45 02:13:56 13° 271° (W) 02:15:56 437.305
GONETS M04 30 May 02:11:55 02:19:30 33° 276° (W) 02:26:49
KKS-1 30 May 02:14:58 02:18:21 22° 65° (ENE) 02:21:50 437.445
Gurwin Techsat 1B 30 May 02:22:00 02:24:01 12° 86° (E) 02:26:21 435.225
SO-50 30 May 02:37:02 02:41:18 36° 116° (ESE) 02:45:46 436.795
VERMONT LUNAR 30 May 02:38:40 02:41:44 41° 173° (S) 02:44:47 437.305
Oscar 19 30 May 02:41:00 02:46:09 64° 102° (ESE) 02:51:14 437.125/150
BEESAT 2 30 May 02:48:24 02:52:33 78° 236° (SW) 02:56:35 435.950
ITUPSAT 1 30 May 02:58:40 03:02:49 29° 265° (W) 03:06:57 437.325
ISS 30 May 02:59:24 03:02:03 22° 9° (N) 03:04:43 145.825
AIST 2 30 May 02:59:27 03:03:31 42° 49° (NE) 03:07:30 435.215
ITAMSAT 1 30 May 03:02:39 03:07:14 31° 95° (E) 03:11:52 435.822/435.867
BEESAT 30 May 03:04:27 03:08:25 25° 266° (W) 03:12:19 436.000
STARS 30 May 03:09:58 03:14:13 48° 72° (ENE) 03:18:32 437.465
Cosmos 2499 30 May 03:12:01 03:18:56 58° 267° (W) 03:25:56 435.465 / 435.565
SWISSCUBE 30 May 03:14:10 03:17:38 19° 269° (W) 03:20:58 437.505
BEESAT 3 30 May 03:33:39 03:36:52 22° 246° (WSW) 03:39:57 437.485
PHONESAT 2.4 30 May 03:47:10 03:50:29 42° 171° (S) 03:53:48 2401.200-2431.200
KKS-1 30 May 03:50:30 03:54:46 41° 262° (W) 03:59:01 437.445
Gurwin Techsat 1B 30 May 03:59:28 04:04:49 87° 287° (WNW) 04:10:09 435.225
MOZHAYETS 4 30 May 04:07:35 04:11:21 26° 68° (ENE) 04:15:11
JAS-2 30 May 04:13:48 04:17:58 25° 93° (E) 04:22:23 435.910
VERMONT LUNAR 30 May 04:15:37 04:18:39 39° 189° (S) 04:21:40 437.305
SO-50 30 May 04:17:33 04:21:53 34° 316° (NW) 04:26:20 436.795
Oscar 19 30 May 04:21:30 04:25:02 18° 298° (WNW) 04:28:24 437.125/150
HORYU 2 30 May 04:33:40 04:37:44 36° 97° (E) 04:41:50 437.375
ISS 30 May 04:35:40 04:38:55 62° 28° (NNE) 04:42:10 145.825
AIST 2 30 May 04:38:35 04:41:51 21° 247° (WSW) 04:44:58 435.215
ITAMSAT 1 30 May 04:42:01 04:46:47 36° 293° (WNW) 04:51:30 435.822/435.867
STARS 30 May 04:47:54 04:50:59 18° 269° (W) 04:53:55 437.465
AO-7 30 May 04:59:05 05:07:09 50° 100° (E) 05:15:15 29.400- 29.500
PHONESAT 2.4 30 May 05:25:01 05:28:20 43° 188° (S) 05:31:39 2401.200-2431.200
Gurwin Techsat 1B 30 May 05:41:29 05:44:06 13° 302° (WNW) 05:46:29 435.225
MOZHAYETS 4 30 May 05:44:19 05:48:29 33° 264° (W) 05:52:36
PRISM 30 May 05:52:35 05:53:54 12° 62° (ENE) 05:55:26 437.425
VERMONT LUNAR 30 May 05:53:16 05:55:23 16° 205° (SSW) 05:57:26 437.305
CUBESAT XI-V 30 May 05:55:40 05:59:36 29° 68° (ENE) 06:03:38 437.345
JAS-2 30 May 05:58:29 06:03:21 41° 291° (WNW) 06:08:20 435.910
Cosmos 2491 30 May 05:59:54 06:08:09 43° 70° (ENE) 06:16:26 435.465 / 435.565
HORYU 2 30 May 06:10:40 06:14:14 24° 294° (WNW) 06:17:41 437.375
ISS 30 May 06:12:42 06:15:04 18° 225° (SW) 06:17:24 145.825
AO-7 30 May 06:52:09 06:59:52 42° 300° (WNW) 07:07:28 29.400- 29.500
YUBILEINY 30 May 06:52:18 06:59:52 35° 85° (E) 07:07:33 435.215
RS-15 30 May 06:54:05 06:57:27 12° 97° (E) 07:01:53 29.354- 29.394
STRAND 1 30 May 06:59:13 07:04:11 55° 72° (ENE) 07:09:12 437.568
PHONESAT 2.4 30 May 07:03:26 07:06:01 19° 204° (SSW) 07:08:34 2401.200-2431.200
CUTE-I 30 May 07:19:46 07:24:59 51° 99° (E) 07:30:13 437.470
PRISM 30 May 07:24:47 07:28:51 71° 258° (WSW) 07:32:57 437.425
PCSat 30 May 07:32:24 07:34:16 12° 29° (NNE) 07:36:18 145.827
M-CUBED/EXP-1 PRIME 30 May 07:32:38 07:36:45 89° 75° (ENE) 07:40:32 437.505
CUBESAT XI-V 30 May 07:32:55 07:37:00 30° 265° (W) 07:41:05 437.345
AUBIESAT-1 30 May 07:37:25 07:41:29 87° 72° (ENE) 07:45:14 437.475
Cubesat XI-IV 30 May 07:41:23 07:46:47 79° 102° (ESE) 07:52:11 437.490
Cosmos 2491 30 May 07:56:51 08:05:09 46° 271° (W) 08:13:17 435.465 / 435.565
AIST 1 30 May 08:01:15 08:05:40 87° 262° (W) 08:10:05
BRITE-PL 30 May 08:14:17 08:18:16 20° 88° (E) 08:22:16 437.365/2234.400
STRAND 1 30 May 08:40:09 08:43:49 19° 270° (W) 08:47:19 437.568
DOVE 4 30 May 08:43:12 08:45:38 14° 85° (E) 08:48:15 437.250
YUBILEINY 30 May 08:47:51 08:56:25 54° 286° (WNW) 09:04:55 435.215
AO-7 30 May 08:48:37 08:50:33 11° 322° (NW) 08:52:04 29.400- 29.500
RS-15 30 May 08:57:07 09:07:43 63° 116° (ESE) 09:18:40 29.354- 29.394
CUTE-I 30 May 09:00:30 09:04:47 24° 297° (WNW) 09:08:57 437.470
PCSat 30 May 09:13:55 09:19:09 47° 52° (NE) 09:24:23 145.827
Cubesat XI-IV 30 May 09:22:59 09:26:18 16° 300° (WNW) 09:29:27 437.490
CANX-2 30 May 09:23:15 09:27:01 32° 96° (E) 09:30:49 2200.000
HO-68 30 May 09:24:07 09:30:43 39° 97° (E) 09:37:21 435.675
UNISAT 6 30 May 09:24:51 09:25:54 11° 60° (ENE) 09:27:10 437.425
CUTE 1.7 + AOD 2 30 May 09:26:14 09:29:59 31° 95° (E) 09:33:45 437.475
SO-50 30 May 09:27:43 09:29:55 13° 28° (NNE) 09:32:15 436.795
CINEMA 3 30 May 09:31:14 09:34:28 19° 89° (E) 09:37:43 145.822/145.860
GOMX 1 30 May 09:35:46 09:41:07 69° 101° (E) 09:46:07 467.674
Cosmos 2504 30 May 09:38:32 09:45:58 41° 89° (E) 09:53:04 435.465 / 435.565
SEEDS 30 May 09:42:59 09:46:54 38° 97° (E) 09:50:50 437.485
Oscar 11 30 May 09:48:39 09:51:01 15° 89° (E) 09:53:35 145.826/435.025
COMPASS 1 30 May 09:50:22 09:54:14 37° 97° (E) 09:58:06 437.405
BRITE-PL 30 May 09:51:42 09:57:16 60° 288° (WNW) 10:02:31 437.365/2234.400
CUBEBUG 2 30 May 09:58:35 10:01:27 17° 89° (E) 10:04:24 437.445
AAUSAT CUBESAT 2 30 May 09:59:18 10:03:13 40° 98° (E) 10:07:08 437.432
DELFI C3 30 May 10:03:21 10:05:32 15° 90° (E) 10:07:52 145.870
ANTELSAT 30 May 10:05:10 10:08:59 26° 68° (ENE) 10:12:52 437.575/2403.000
QB50P1 30 May 10:16:44 10:19:11 15° 64° (ENE) 10:21:48 145.935-145.965
DOVE 4 30 May 10:19:02 10:24:07 72° 286° (WNW) 10:28:52 437.250
POLYITAN 1 30 May 10:20:28 10:23:13 17° 64° (ENE) 10:26:06 437.675
TIGRISAT 30 May 10:35:27 10:39:57 50° 72° (ENE) 10:44:25 435.000
UWE-3 30 May 10:37:21 10:41:21 35° 96° (E) 10:45:16 435.000/436.395/437.385
FUNcube-1 30 May 10:37:38 10:41:17 27° 94° (E) 10:44:55 145.935
HUMSAT D 30 May 10:44:37 10:46:57 15° 89° (E) 10:49:25 437.325/437.525
NANOSAT C BR1 30 May 10:45:17 10:48:57 29° 69° (ENE) 10:52:41 145.865
YUBILEINY 30 May 10:53:12 10:55:55 11° 312° (NW) 10:58:01 435.215
AISAT 30 May 10:55:28 10:56:28 11° 86° (E) 10:57:44 437.250
QB50P2 30 May 10:55:46 10:59:44 38° 70° (ENE) 11:03:45 145.880/145.840
UNISAT 6 30 May 10:57:21 11:02:02 85° 76° (ENE) 11:06:41 437.425
PCSat 30 May 10:57:48 11:02:22 27° 250° (WSW) 11:06:49 145.827
CANX-2 30 May 10:59:25 11:02:49 24° 292° (WNW) 11:06:10 2200.000
CUTE 1.7 + AOD 2 30 May 11:02:21 11:05:48 24° 292° (WNW) 11:09:10 437.475
DUCHIFAT 1 30 May 11:05:46 11:09:50 46° 72° (ENE) 11:13:58 145.980
SO-50 30 May 11:06:49 11:11:41 51° 50° (NE) 11:16:28 436.795
POPSAT HIP 1 30 May 11:06:52 11:11:00 48° 72° (ENE) 11:15:11 437.405
CINEMA 3 30 May 11:07:30 11:12:00 45° 289° (WNW) 11:16:16 145.822/145.860
RS-15 30 May 11:10:14 11:20:41 46° 322° (NW) 11:31:27 29.354- 29.394
HO-68 30 May 11:11:50 11:18:32 44° 296° (WNW) 11:25:09 435.675
BUGSAT 1 30 May 11:12:16 11:16:07 37° 70° (ENE) 11:20:03 437.445
UKube-1 30 May 11:13:41 11:17:29 29° 95° (E) 11:21:19 .
GOMX 1 30 May 11:15:04 11:18:39 18° 299° (WNW) 11:21:57 467.674
ZACube-1 30 May 11:19:22 11:23:42 81° 102° (ESE) 11:27:55 437.345
SEEDS 30 May 11:19:23 11:22:29 20° 294° (WNW) 11:25:28 437.485
Oscar 11 30 May 11:23:23 11:27:35 52° 287° (WNW) 11:31:46 145.826/435.025
COMPASS 1 30 May 11:26:36 11:29:42 20° 293° (WNW) 11:32:42 437.405
DANDE 30 May 11:27:21 11:29:44 12° 75° (ENE) 11:32:51 436.750
GONETS M04 30 May 11:27:39 11:30:01 12° 73° (ENE) 11:33:06
DX 1 30 May 11:27:42 11:31:55 44° 99° (E) 11:36:08 434.975-435.025
CUSAT 1 30 May 11:31:00 11:35:34 18° 80° (E) 11:40:44 437.405
Cosmos 2504 30 May 11:31:37 11:39:21 43° 287° (WNW) 11:46:32 435.465 / 435.565
CUBEBUG 2 30 May 11:34:13 11:38:29 45° 288° (WNW) 11:42:33 437.445
AAUSAT CUBESAT 2 30 May 11:35:37 11:38:35 19° 294° (WNW) 11:41:26 437.432
DELFI C3 30 May 11:37:05 11:40:57 47° 287° (WNW) 11:44:49 145.870
ANTELSAT 30 May 11:41:22 11:45:39 35° 264° (W) 11:49:52 437.575/2403.000
CUBEBUG 1 30 May 11:44:29 11:47:35 19° 91° (E) 11:50:48 437.445
QB50P1 30 May 11:50:26 11:54:39 56° 260° (W) 11:58:54 145.935-145.965
POLYITAN 1 30 May 11:54:35 11:58:47 50° 261° (W) 12:03:01 437.675
VELOX 1 30 May 11:56:15 12:00:34 46° 99° (E) 12:04:53 145.980
DOVE 4 30 May 12:00:13 12:00:56 10° 303° (WNW) 12:01:23 437.250
TIGRISAT 30 May 12:13:42 12:17:00 18° 269° (W) 12:20:07 435.000
ESTCUBE 1 30 May 12:13:46 12:18:07 43° 98° (E) 12:22:27 437.505/2401.250
FUNcube-1 30 May 12:13:54 12:17:36 28° 292° (WNW) 12:21:10 145.935
UWE-3 30 May 12:14:16 12:17:43 22° 294° (WNW) 12:21:00 435.000/436.395/437.385
HUMSAT D 30 May 12:19:02 12:23:03 48° 287° (WNW) 12:27:00 437.325/437.525
NANOSAT C BR1 30 May 12:21:05 12:24:47 27° 266° (W) 12:28:26 145.865
Oscar 19 30 May 12:22:38 12:25:34 16° 60° (ENE) 12:28:41 437.125/150
50 SAT 30 May 12:22:51 12:26:44 75° 285° (WNW) 12:30:34 437.505
AISAT 30 May 12:29:11 12:33:43 78° 285° (WNW) 12:38:11 437.250
QB50P2 30 May 12:32:30 12:35:47 20° 268° (W) 12:38:59 145.880/145.840
UNISAT 6 30 May 12:38:35 12:39:30 10° 274° (W) 12:40:07 437.425
DUCHIFAT 1 30 May 12:43:03 12:45:56 17° 269° (W) 12:48:42 145.980
POPSAT HIP 1 30 May 12:44:25 12:47:12 16° 270° (W) 12:49:51 437.405
SO-50 30 May 12:47:58 12:51:58 24° 247° (WSW) 12:55:47 436.795
BUGSAT 1 30 May 12:48:35 12:51:45 20° 268° (W) 12:54:51 437.445
UKube-1 30 May 12:49:50 12:53:34 28° 292° (WNW) 12:57:14 .
ZACube-1 30 May 12:58:11 12:59:27 11° 299° (WNW) 13:00:31 437.345
DANDE 30 May 13:03:56 13:11:19 59° 93° (E) 13:19:44 436.750
DX 1 30 May 13:04:40 13:07:53 20° 295° (WNW) 13:10:59 434.975-435.025
CUSAT 1 30 May 13:09:22 13:17:05 78° 98° (E) 13:25:28 437.405
GONETS M04 30 May 13:16:36 13:25:15 64° 93° (E) 13:33:58
CUBEBUG 1 30 May 13:19:57 13:24:12 44° 289° (WNW) 13:28:25 437.445
RS-15 30 May 13:27:56 13:36:52 26° 355° (N) 13:46:03 29.354- 29.394
VELOX 1 30 May 13:33:34 13:36:50 20° 295° (WNW) 13:39:59 145.980
SWISSCUBE 30 May 13:36:19 13:37:28 11° 86° (E) 13:38:55 437.505
Gurwin Techsat 1B 30 May 13:43:34 13:47:42 24° 64° (ENE) 13:51:58 435.225
SPROUT 30 May 13:43:53 13:48:15 82° 284° (WNW) 13:52:34 437.525
ESTCUBE 1 30 May 13:51:17 13:54:43 21° 295° (WNW) 13:58:04 437.505/2401.250
TISAT 1 30 May 13:52:13 13:56:32 88° 112° (ESE) 14:00:46 437.305
Oscar 19 30 May 13:59:08 14:04:21 78° 256° (WSW) 14:09:35 437.125/150
Cosmos 2499 30 May 13:59:18 14:04:38 21° 83° (E) 14:10:04 435.465 / 435.565
AO-7 30 May 14:10:43 14:15:58 20° 48° (NE) 14:21:33 29.400- 29.500
ITAMSAT 1 30 May 14:21:52 14:26:52 53° 71° (ENE) 14:31:57 435.822/435.867
JAS-2 30 May 14:29:27 14:32:45 16° 60° (ENE) 14:36:07 435.910
DANDE 30 May 14:47:57 14:55:05 36° 295° (WNW) 15:02:45 436.750
CUSAT 1 30 May 14:54:05 15:00:45 27° 299° (WNW) 15:07:27 437.405
ITUPSAT 1 30 May 14:56:56 15:01:43 64° 102° (ESE) 15:06:29 437.325
BEESAT 30 May 15:02:06 15:06:54 74° 103° (ESE) 15:11:40 436.000
SWISSCUBE 30 May 15:11:14 15:16:04 84° 284° (WNW) 15:20:51 437.505
GONETS M04 30 May 15:15:05 15:22:48 31° 295° (WNW) 15:30:21
Gurwin Techsat 1B 30 May 15:22:17 15:27:25 49° 261° (W) 15:32:35 435.225
TISAT 1 30 May 15:31:01 15:31:40 10° 300° (WNW) 15:32:07 437.305
HORYU 2 30 May 15:33:08 15:37:18 40° 70° (ENE) 15:41:31 437.375
O/OREOS (USA 219) 30 May 15:36:49 15:41:19 75° 112° (ESE) 15:45:49 437.305
KKS-1 30 May 15:40:10 15:44:13 33° 96° (E) 15:48:17 437.445
RS-15 30 May 15:43:31 15:53:42 36° 28° (NNE) 16:04:26 29.354- 29.394
Cosmos 2499 30 May 15:49:10 15:57:10 76° 280° (W) 16:04:37 435.465 / 435.565
AO-7 30 May 15:59:18 16:07:33 74° 68° (ENE) 16:15:53 29.400- 29.500
ITAMSAT 1 30 May 16:02:55 16:06:46 20° 269° (W) 16:10:30 435.822/435.867
JAS-2 30 May 16:10:53 16:17:22 90° 247° (WSW) 16:23:08 435.910
STARS 30 May 16:34:25 16:38:53 79° 103° (ESE) 16:43:17 437.465
ITUPSAT 1 30 May 16:36:06 16:39:09 17° 298° (WNW) 16:42:03 437.325
BEESAT 30 May 16:41:32 16:44:12 15° 299° (WNW) 16:46:42 436.000
BEESAT 2 30 May 16:45:13 16:47:15 14° 111° (ESE) 16:49:29 435.950
SWISSCUBE 30 May 16:51:40 16:53:14 11° 301° (WNW) 16:54:33 437.505
YUBILEINY 30 May 17:00:37 17:06:09 19° 57° (ENE) 17:12:05 435.215
CUTE-I 30 May 17:06:18 17:08:59 15° 59° (ENE) 17:11:53 437.470
HORYU 2 30 May 17:10:42 17:14:09 21° 267° (W) 17:17:29 437.375
KKS-1 30 May 17:17:00 17:20:45 26° 293° (WNW) 17:24:23 437.445
O/OREOS (USA 219) 30 May 17:18:45 17:21:21 15° 311° (NW) 17:23:47 437.305
BEESAT 3 30 May 17:26:42 17:30:35 45° 119° (ESE) 17:34:32 437.485
Cubesat XI-IV 30 May 17:26:43 17:30:36 22° 63° (ENE) 17:34:38 437.490
MOZHAYETS 4 30 May 17:37:26 17:41:54 50° 99° (E) 17:46:22
Cosmos 2499 30 May 17:47:28 17:51:46 15° 302° (WNW) 17:55:31 435.465 / 435.565
AO-7 30 May 17:54:30 18:01:13 25° 269° (W) 18:07:41 29.400- 29.500
RS-15 30 May 17:56:17 18:07:57 87° 57° (ENE) 18:20:08 29.354- 29.394
JAS-2 30 May 18:00:03 18:03:13 14° 272° (W) 18:05:52 435.910
STARS 30 May 18:12:55 18:14:45 12° 299° (WNW) 18:16:25 437.465
BEESAT 2 30 May 18:20:49 18:24:54 63° 307° (NW) 18:29:02 435.950
AIST 2 30 May 18:36:32 18:40:42 56° 120° (ESE) 18:44:55 435.215
CUTE-I 30 May 18:43:04 18:48:24 88° 255° (WSW) 18:53:47 437.470
YUBILEINY 30 May 18:55:54 19:04:39 83° 80° (E) 19:13:23 435.215
Cosmos 2491 30 May 19:02:44 19:10:54 46° 89° (E) 19:19:13 435.465 / 435.565
Cubesat XI-IV 30 May 19:05:07 19:10:20 57° 259° (W) 19:15:36 437.490
BEESAT 3 30 May 19:05:27 19:08:46 23° 318° (NW) 19:12:03 437.485
PRISM 30 May 19:07:03 19:09:14 14° 90° (E) 19:11:36 437.425
STRAND 1 30 May 19:09:28 19:12:39 17° 89° (E) 19:16:02 437.568
GOMX 1 30 May 19:09:55 19:12:15 13° 58° (ENE) 19:14:52 467.674
MOZHAYETS 4 30 May 19:15:35 19:18:47 19° 295° (WNW) 19:21:52
BRITE-PL 30 May 19:25:51 19:30:10 27° 65° (ENE) 19:34:48 437.365/2234.400
CUBESAT XI-V 30 May 19:27:23 19:32:03 59° 100° (E) 19:36:43 437.345
Cosmos 2504 30 May 19:30:34 19:33:41 13° 56° (NE) 19:37:12 435.465 / 435.565
DOVE 4 30 May 19:49:19 19:52:54 19° 63° (ENE) 19:56:41 437.250
HO-68 30 May 19:54:22 20:00:40 35° 62° (ENE) 20:07:04 435.675
BEESAT 2 30 May 20:02:19 20:03:51 12° 328° (NNW) 20:05:17 435.950
RS-15 30 May 20:09:58 20:19:18 27° 256° (WSW) 20:28:23 29.354- 29.394
AIST 2 30 May 20:16:20 20:19:39 21° 320° (NW) 20:22:53 435.215
CANX-2 30 May 20:17:39 20:21:16 28° 69° (ENE) 20:24:57 2200.000
CUTE 1.7 + AOD 2 30 May 20:20:36 20:24:11 27° 69° (ENE) 20:27:49 437.475
CUTE-I 30 May 20:27:33 20:29:23 11° 275° (W) 20:30:53 437.470
AIST 1 30 May 20:32:03 20:36:10 50° 94° (E) 20:40:22
CINEMA 3 30 May 20:33:42 20:37:38 24° 66° (ENE) 20:41:40 145.822/145.860
SEEDS 30 May 20:36:25 20:40:11 33° 70° (ENE) 20:43:59 437.485
PRISM 30 May 20:40:59 20:45:03 52° 288° (WNW) 20:49:07 437.425
COMPASS 1 30 May 20:43:01 20:46:41 31° 70° (ENE) 20:50:24 437.405
GOMX 1 30 May 20:44:16 20:49:32 81° 77° (ENE) 20:55:04 467.674
Oscar 11 30 May 20:45:16 20:47:42 15° 64° (ENE) 20:50:16 145.826/435.025
M-CUBED/EXP-1 PRIME 30 May 20:47:11 20:50:23 47° 105° (ESE) 20:53:38 437.505
STRAND 1 30 May 20:47:16 20:52:22 64° 287° (WNW) 20:57:27 437.568
AUBIESAT-1 30 May 20:51:19 20:54:30 45° 105° (ESE) 20:57:45 437.475
AAUSAT CUBESAT 2 30 May 20:51:29 20:55:12 33° 70° (ENE) 20:58:58 437.432
DELFI C3 30 May 20:53:15 20:54:43 12° 63° (ENE) 20:56:22 145.870
YUBILEINY 30 May 20:54:18 21:00:34 22° 280° (W) 21:06:25 435.215
CUBEBUG 2 30 May 20:57:53 21:01:19 21° 66° (ENE) 21:04:52 437.445
Cosmos 2491 30 May 20:59:36 21:07:54 43° 289° (WNW) 21:16:10 435.465 / 435.565
BRITE-PL 30 May 21:03:19 21:08:23 47° 263° (W) 21:13:47 437.365/2234.400
CUBESAT XI-V 30 May 21:05:59 21:09:04 17° 297° (WNW) 21:12:00 437.345
Cosmos 2504 30 May 21:21:27 21:28:40 75° 79° (E) 21:35:54 435.465 / 435.565
DOVE 4 30 May 21:24:59 21:30:09 65° 259° (W) 21:35:29 437.250
FUNcube-1 30 May 21:34:30 21:38:22 28° 68° (ENE) 21:42:17 145.935
UWE-3 30 May 21:35:22 21:39:39 37° 71° (ENE) 21:43:56 435.000/436.395/437.385
HUMSAT D 30 May 21:38:12 21:40:32 15° 64° (ENE) 21:43:01 437.325/437.525
